Location: Newark
(48.1500°N, 2.9667°W)
Time: 06:14:42
(UTC+00:00)

Altair - Visible Passes

Search period start: 23 January 2020 00:00
Search period end: 02 February 2020 00:00
Orbit: 1502 x 1682 km, 47.2° (Epoch: 22 January)

Date Brightness Start Highest point End Pass type
(mag) Time Alt. Az. Time Alt. Az. Time Alt. Az.
23 Jan 10.5 06:41:55 10° SE 06:45:09 12° ESE 06:48:23 10° ESE visible
24 Jan 10.5 06:18:58 10° SE 06:20:10 10° ESE 06:21:22 10° ESE visible
27 Jan 9.6 06:59:05 10° SSW 07:07:23 31° SE 07:15:48 10° ENE visible
28 Jan 9.6 06:34:18 10° S 06:42:19 29° SE 06:50:28 10° E visible
29 Jan 9.6 06:09:33 10° S 06:17:16 27° SE 06:25:06 10° E visible
30 Jan 9.6 05:44:50 10° S 05:52:14 24° SE 05:59:44 10° E visible
31 Jan 9.6 05:20:12 10° S 05:27:11 22° SE 05:34:17 10° E visible
01 Feb 9.6 04:55:37 10° S 05:02:09 20° SE 05:08:49 10° E visible
01 Feb 8.5 06:55:43 10° SW 07:05:15 54° SSE 07:15:00 10° ENE visible
